[TLELIST] Archives

 

[TLELIST] Current TLEs

November 20th 2025 PDT

0 HST 1 20580U 90037B 25323.99496954 .00007162 00000-0 24976-3 0 9991 2 20580 28.4690 67.2438 0001614 359.6283 0.4311 15.27611976756512 0 ISS (ZARYA) 1 25544U 98067A 25324.22216551 .00014969 00000-0 28011-3 0 9994 2 25544 51.6325 253.9268 0004000 147.6792 212.4442 15.48916399539369 0 CXO 1 25867U 99040B 25322.81665439 .00000534 00000-0 00000-0 0 9998 2 25867 52.5795 123.3844 8177868 310.7722 0.0625 0.37807220 16521 ...Continue Reading

[TLELIST] Current TLEs

November 19th 2025 PDT

0 HST 1 20580U 90037B 25323.01501379 .00007556 00000-0 26403-3 0 9996 2 20580 28.4686 73.9096 0001547 347.7149 12.3408 15.27597119756369 0 ISS (ZARYA) 1 25544U 98067A 25323.19007697 .00014207 00000-0 25812-3 0 9999 2 25544 51.6333 259.0348 0004155 86.2580 273.8884 15.49812972539205 0 CXO 1 25867U 99040B 25322.81665439 .00000534 00000-0 00000-0 0 9998 2 25867 52.5795 123.3844 8177868 310.7722 0.0625 0.37807220 16521 ...Continue Reading

[TLELIST] Current TLEs

November 18th 2025 PDT

0 HST 1 20580U 90037B 25321.64305950 .00009270 00000-0 32589-3 0 9997 2 20580 28.4682 83.2418 0001440 330.0019 30.0493 15.27573676756150 0 ISS (ZARYA) 1 25544U 98067A 25321.90043552 .00014804 00000-0 26899-3 0 9995 2 25544 51.6331 265.4223 0004180 82.0364 278.1099 15.49772275539003 0 CXO 1 25867U 99040B 25322.81665439 .00000534 00000-0 00000-0 0 9998 2 25867 52.5795 123.3844 8177868 310.7722 0.0625 0.37807220 16521 ...Continue Reading

[TLELIST] Current TLEs

November 17th 2025 PDT

0 HST 1 20580U 90037B 25320.66307832 .00010146 00000-0 35759-3 0 9995 2 20580 28.4680 89.9077 0001409 316.9081 43.1403 15.27554036756008 0 ISS (ZARYA) 1 25544U 98067A 25320.35281829 .00017169 00000-0 31117-3 0 9990 2 25544 51.6328 273.0879 0004159 76.5981 283.5471 15.49717811538761 0 CXO 1 25867U 99040B 25322.81665439 .00000534 00000-0 00000-0 0 9998 2 25867 52.5795 123.3844 8177868 310.7722 0.0625 0.37807220 16521 ...Continue Reading

[TLELIST] Current TLEs

November 16th 2025 PDT

0 HST 1 20580U 90037B 25319.68308380 .00009217 00000-0 32437-3 0 9991 2 20580 28.4677 96.5739 0001376 302.9143 57.1320 15.27534136755854 0 ISS (ZARYA) 1 25544U 98067A 25319.38552854 .00013221 00000-0 24188-3 0 9995 2 25544 51.6327 277.8788 0004161 73.2410 286.9034 15.49683527538617 0 CXO 1 25867U 99040B 25320.17224448 .00000509 00000-0 00000+0 0 9997 2 25867 52.5589 123.4464 8183192 310.7890 0.0431 0.37809530 16514 ...Continue Reading

[TLELIST] Current TLEs

November 15th 2025 PDT

0 HST 1 20580U 90037B 25318.70307728 .00008593 00000-0 30207-3 0 9997 2 20580 28.4675 103.2400 0001369 288.8831 71.1616 15.27514736755703 0 ISS (ZARYA) 1 25544U 98067A 25318.54719561 .00013278 00000-0 24309-3 0 9999 2 25544 51.6328 282.0308 0004169 69.9599 290.1838 15.49658592538480 0 CXO 1 25867U 99040B 25320.17224448 .00000509 00000-0 00000+0 0 9997 2 25867 52.5589 123.4464 8183192 310.7890 0.0431 0.37809530 16514 ...Continue Reading

[TLELIST] Current TLEs

November 14th 2025 PDT

0 HST 1 20580U 90037B 25317.78839397 .00015346 00000-0 54543-3 0 9999 2 20580 28.4676 109.4617 0001402 277.9729 82.0707 15.27499624755569 0 ISS (ZARYA) 1 25544U 98067A 25318.22475630 .00013472 00000-0 24659-3 0 9994 2 25544 51.6329 283.6283 0004195 68.4296 291.7139 15.49650045538438 0 CXO 1 25867U 99040B 25320.17224448 .00000509 00000-0 00000+0 0 9997 2 25867 52.5589 123.4464 8183192 310.7890 0.0431 0.37809530 16514 ...Continue Reading

[TLELIST] Current TLEs

November 13th 2025 PDT

0 HST 1 20580U 90037B 25316.74302525 .00014397 00000-0 51187-3 0 9998 2 20580 28.4676 116.5718 0001377 261.5912 98.4527 15.27462858755407 0 ISS (ZARYA) 1 25544U 98067A 25317.19293592 .00019765 00000-0 35825-3 0 9992 2 25544 51.6333 288.7385 0004163 64.5254 295.6165 15.49608679538278 0 CXO 1 25867U 99040B 25320.17194638 .00000509 00000-0 00000-0 0 9995 2 25867 52.5589 123.4464 8183177 310.7889 0.0024 0.37810289 16516 ...Continue Reading

[TLELIST] Current TLEs

November 12th 2025 PDT

0 HST 1 20580U 90037B 25315.76296958 .00008867 00000-0 31276-3 0 9993 2 20580 28.4674 123.2374 0001388 246.9456 113.0993 15.27432822755252 0 ISS (ZARYA) 1 25544U 98067A 25316.22557474 .00019835 00000-0 36009-3 0 9990 2 25544 51.6334 293.5281 0004132 61.4658 298.6746 15.49560899538121 0 CXO 1 25867U 99040B 25317.52732426 .00000566 00000-0 00000-0 0 9996 2 25867 52.5245 123.5231 8189826 310.7924 359.9888 0.37808268 16502 ...Continue Reading

[TLELIST] Current TLEs

November 11th 2025 PDT

0 HST 1 20580U 90037B 25314.78289832 .00008261 00000-0 29101-3 0 9999 2 20580 28.4673 129.9029 0001426 233.3500 126.6964 15.27415033755101 0 ISS (ZARYA) 1 25544U 98067A 25315.25818480 .00012468 00000-0 22984-3 0 9991 2 25544 51.6338 298.3179 0004133 57.8977 302.2413 15.49525392537972 0 CXO 1 25867U 99040B 25317.52732426 .00000566 00000-0 00000-0 0 9996 2 25867 52.5245 123.5231 8189826 310.7924 359.9888 0.37808268 16502 ...Continue Reading
  • This mailing list is a public mailing list - anyone may join or leave, at any time.
  • This mailing list is announce-only.

International Space Station (ISS) / Hubble Space Telescope (HST) / Chandra X-Ray Observatory Orbital Data via EMAIL

Privacy Policy:

Private list